When you browse on this site, cookies collect data to enhance your experience and personalize the content and advertising you see.
Visit our Privacy Policy to learn more. By continuing to use the site, you agree to this use of cookies and data.
  • Em Portugal
  • Lista de países
  • Para 7 dias
  • Temperatura da água
  • Mapas de satélite
  • Mapa do tempo
  • Widgets de tempo
  • user-avatar
    Iniciar Sessão

    Previsão horária em Vratsa

    Hoje, 25 Março, Segunda-feira

    Tempo Temperatura Precipitação Vento Pressão Humidade
    00:00 +8°C° 0 mm 2 m/s 709 mmHg 47%
    01:00 +7°C° 0 mm 2 m/s 709 mmHg 47%
    02:00 +7°C° 0 mm 2 m/s 709 mmHg 48%
    03:00 +7°C° 0 mm 2 m/s 708 mmHg 50%
    04:00 +6°C° 0 mm 2 m/s 708 mmHg 51%
    05:00 +6°C° 0 mm 2 m/s 708 mmHg 53%
    06:00 +7°C° 0 mm 2 m/s 707 mmHg 53%
    07:00 +8°C° 0 mm 2 m/s 707 mmHg 53%
    08:00 +8°C° 0 mm 2 m/s 707 mmHg 52%
    09:00 +12°C° 0 mm 2 m/s 707 mmHg 45%
    10:00 +14°C° 0 mm 2 m/s 707 mmHg 39%
    11:00 +16°C° 0 mm 2 m/s 707 mmHg 32%
    12:00 +17°C° 0 mm 2 m/s 706 mmHg 29%
    13:00 +19°C° 0 mm 1 m/s 706 mmHg 27%
    14:00 +20°C° 0 mm 1 m/s 705 mmHg 25%
    15:00 +19°C° 0 mm 2 m/s 705 mmHg 27%
    16:00 +19°C° 0 mm 2 m/s 704 mmHg 29%
    17:00 +19°C° 0 mm 2 m/s 703 mmHg 30%
    18:00 +18°C° 0 mm 1 m/s 703 mmHg 35%
    19:00 +15°C° 0 mm 1 m/s 703 mmHg 40%
    20:00 +12°C° 0 mm 0 m/s 703 mmHg 45%
    21:00 +12°C° 0 mm 1 m/s 703 mmHg 47%
    22:00 +12°C° 0 mm 1 m/s 703 mmHg 50%
    23:00 +11°C° 0 mm 1 m/s 703 mmHg 52%

    Amanhã, 26 Março, Terça-feira

    Tempo Temperatura Precipitação Vento Pressão Humidade
    00:00 +10°C° 0 mm 1 m/s 703 mmHg 55%
    01:00 +10°C° 0 mm 1 m/s 703 mmHg 57%
    02:00 +10°C° 0 mm 1 m/s 703 mmHg 59%
    03:00 +8°C° 0 mm 2 m/s 704 mmHg 61%
    04:00 +8°C° 0 mm 2 m/s 704 mmHg 62%
    05:00 +8°C° 0 mm 3 m/s 704 mmHg 63%
    06:00 +8°C° 0 mm 3 m/s 705 mmHg 64%
    07:00 +8°C° 0 mm 3 m/s 705 mmHg 64%
    08:00 +8°C° 0 mm 3 m/s 706 mmHg 65%
    09:00 +7°C° 0.1 mm 4 m/s 706 mmHg 62%
    10:00 +7°C° 0.1 mm 4 m/s 707 mmHg 58%
    11:00 +8°C° 0.1 mm 4 m/s 707 mmHg 55%
    12:00 +8°C° 0.2 mm 4 m/s 707 mmHg 53%
    13:00 +8°C° 0.2 mm 4 m/s 707 mmHg 51%
    14:00 +10°C° 0.2 mm 4 m/s 707 mmHg 50%
    15:00 +10°C° 0 mm 4 m/s 708 mmHg 48%
    16:00 +10°C° 0 mm 4 m/s 708 mmHg 46%
    17:00 +11°C° 0 mm 4 m/s 708 mmHg 44%
    18:00 +9°C° 0 mm 3 m/s 709 mmHg 46%
    19:00 +8°C° 0 mm 3 m/s 709 mmHg 49%
    20:00 +7°C° 0 mm 2 m/s 710 mmHg 52%
    21:00 +7°C° 0 mm 2 m/s 710 mmHg 53%
    22:00 +6°C° 0 mm 2 m/s 710 mmHg 54%
    23:00 +5°C° 0 mm 2 m/s 711 mmHg 54%

    Depois de amanhã, 27 Março, Quarta-feira

    Tempo Temperatura Precipitação Vento Pressão Humidade
    00:00 +5°C° 0 mm 2 m/s 711 mmHg 56%
    01:00 +6°C° 0 mm 1 m/s 711 mmHg 58%
    02:00 +5°C° 0 mm 1 m/s 711 mmHg 59%
    03:00 +5°C° 0 mm 1 m/s 711 mmHg 60%
    04:00 +5°C° 0 mm 1 m/s 711 mmHg 61%
    05:00 +5°C° 0 mm 1 m/s 711 mmHg 62%
    06:00 +5°C° 0 mm 1 m/s 712 mmHg 60%
    07:00 +6°C° 0 mm 1 m/s 712 mmHg 59%
    08:00 +6°C° 0 mm 1 m/s 712 mmHg 57%
    09:00 +6°C° 0 mm 2 m/s 713 mmHg 57%
    10:00 +7°C° 0 mm 2 m/s 713 mmHg 57%
    11:00 +7°C° 0 mm 2 m/s 713 mmHg 57%
    12:00 +8°C° 0 mm 2 m/s 713 mmHg 56%
    13:00 +9°C° 0 mm 2 m/s 713 mmHg 54%
    14:00 +10°C° 0 mm 2 m/s 713 mmHg 53%
    15:00 +10°C° 0 mm 2 m/s 713 mmHg 53%
    16:00 +10°C° 0 mm 2 m/s 712 mmHg 54%
    17:00 +11°C° 0 mm 1 m/s 712 mmHg 55%
    18:00 +10°C° 0 mm 1 m/s 713 mmHg 59%
    19:00 +9°C° 0 mm 1 m/s 713 mmHg 64%
    20:00 +8°C° 0 mm 1 m/s 713 mmHg 68%
    21:00 +7°C° 0 mm 1 m/s 713 mmHg 70%
    22:00 +7°C° 0 mm 1 m/s 714 mmHg 71%
    23:00 +6°C° 0 mm 1 m/s 714 mmHg 73%

    28 Março, Quinta-feira

    Tempo Temperatura Precipitação Vento Pressão Humidade
    00:00 +6°C° 0 mm 1 m/s 714 mmHg 73%
    01:00 +6°C° 0 mm 1 m/s 715 mmHg 73%
    02:00 +5°C° 0 mm 2 m/s 715 mmHg 74%
    03:00 +5°C° 0.1 mm 1 m/s 715 mmHg 77%
    04:00 +5°C° 0.1 mm 1 m/s 715 mmHg 81%
    05:00 +5°C° 0.1 mm 1 m/s 715 mmHg 85%
    06:00 +5°C° 0.3 mm 1 m/s 715 mmHg 85%
    07:00 +5°C° 0.3 mm 1 m/s 716 mmHg 84%
    08:00 +4°C° 0.3 mm 2 m/s 716 mmHg 84%
    09:00 +5°C° 0.1 mm 2 m/s 716 mmHg 81%
    10:00 +5°C° 0.1 mm 2 m/s 716 mmHg 79%
    11:00 +6°C° 0.1 mm 2 m/s 717 mmHg 76%
    12:00 +6°C° 0.3 mm 2 m/s 716 mmHg 74%
    13:00 +7°C° 0.3 mm 3 m/s 716 mmHg 72%
    14:00 +7°C° 0.3 mm 3 m/s 716 mmHg 70%
    15:00 +7°C° 0.4 mm 3 m/s 716 mmHg 70%
    16:00 +7°C° 0.4 mm 3 m/s 715 mmHg 69%
    17:00 +7°C° 0.4 mm 3 m/s 715 mmHg 68%
    18:00 +5°C° 0.1 mm 3 m/s 715 mmHg 69%
    19:00 +5°C° 0.1 mm 3 m/s 716 mmHg 69%
    20:00 +4°C° 0.1 mm 3 m/s 716 mmHg 69%
    21:00 +3°C° 0 mm 3 m/s 716 mmHg 69%
    22:00 +3°C° 0 mm 2 m/s 717 mmHg 70%
    23:00 +2°C° 0 mm 2 m/s 717 mmHg 70%

    29 Março, Sexta-feira

    Tempo Temperatura Precipitação Vento Pressão Humidade
    00:00 +2°C° 0 mm 1 m/s 717 mmHg 69%
    01:00 +2°C° 0 mm 1 m/s 717 mmHg 67%
    02:00 +1°C° 0 mm 1 m/s 717 mmHg 66%
    03:00 +1°C° 0 mm 1 m/s 717 mmHg 66%
    04:00 0°C° 0 mm 1 m/s 717 mmHg 67%
    05:00 0°C° 0 mm 1 m/s 717 mmHg 67%
    06:00 +1°C° 0 mm 1 m/s 717 mmHg 61%
    07:00 +1°C° 0 mm 2 m/s 718 mmHg 56%
    08:00 +1°C° 0 mm 2 m/s 718 mmHg 50%
    09:00 +1°C° 0 mm 3 m/s 718 mmHg 48%
    10:00 +3°C° 0 mm 4 m/s 718 mmHg 46%
    11:00 +4°C° 0 mm 4 m/s 718 mmHg 44%
    12:00 +4°C° 0 mm 4 m/s 717 mmHg 43%
    13:00 +5°C° 0 mm 4 m/s 717 mmHg 42%
    14:00 +6°C° 0 mm 5 m/s 716 mmHg 41%
    15:00 +6°C° 0 mm 4 m/s 716 mmHg 42%
    16:00 +5°C° 0 mm 4 m/s 716 mmHg 43%
    17:00 +5°C° 0 mm 4 m/s 715 mmHg 44%
    18:00 +4°C° 0 mm 3 m/s 715 mmHg 49%
    19:00 +4°C° 0 mm 2 m/s 715 mmHg 53%
    20:00 +3°C° 0 mm 1 m/s 716 mmHg 58%
    21:00 +3°C° 0 mm 1 m/s 716 mmHg 59%
    22:00 +2°C° 0 mm 1 m/s 716 mmHg 60%
    23:00 +2°C° 0 mm 1 m/s 716 mmHg 61%

    30 Março, Sábado

    Tempo Temperatura Precipitação Vento Pressão Humidade
    00:00 +2°C° 0 mm 1 m/s 716 mmHg 61%
    01:00 +1°C° 0 mm 1 m/s 715 mmHg 61%
    02:00 +1°C° 0 mm 1 m/s 715 mmHg 62%
    03:00 +1°C° 0 mm 1 m/s 715 mmHg 62%
    04:00 +1°C° 0 mm 1 m/s 715 mmHg 63%
    05:00 0°C° 0 mm 1 m/s 715 mmHg 63%
    06:00 +1°C° 0 mm 1 m/s 715 mmHg 60%
    07:00 +1°C° 0 mm 2 m/s 715 mmHg 56%
    08:00 +2°C° 0 mm 2 m/s 715 mmHg 53%
    09:00 +4°C° 0 mm 2 m/s 715 mmHg 50%
    10:00 +5°C° 0 mm 2 m/s 714 mmHg 46%
    11:00 +5°C° 0 mm 3 m/s 714 mmHg 43%
    12:00 +7°C° 0 mm 3 m/s 713 mmHg 43%
    13:00 +7°C° 0 mm 3 m/s 713 mmHg 43%
    14:00 +8°C° 0 mm 3 m/s 712 mmHg 44%
    15:00 +8°C° 0 mm 3 m/s 711 mmHg 45%
    16:00 +8°C° 0 mm 3 m/s 711 mmHg 46%
    17:00 +8°C° 0 mm 3 m/s 710 mmHg 48%
    18:00 +7°C° 0 mm 2 m/s 711 mmHg 51%
    19:00 +6°C° 0 mm 2 m/s 711 mmHg 55%
    20:00 +6°C° 0 mm 1 m/s 711 mmHg 58%
    21:00 +6°C° 0 mm 1 m/s 711 mmHg 60%
    22:00 +6°C° 0 mm 1 m/s 711 mmHg 61%
    23:00 +5°C° 0 mm 1 m/s 711 mmHg 62%
    Mostrar mais